Weather observations for the past three days for
Mora Municipal Airport
Imperial (Metric)
Date Time (cdt) Wind (mph) Vis. (mi.) Weather Sky Cond. Temperature (ºF) Relative Humidity Wind Chill (°F) Heat Index (°F) Pressure Precipitation (in)
Air Dwpt 6 hour altimeter (in) sea level (mb) 1 hr 3 hr 6 hr
Max. Min.
23 03:35 W 3 10.00 Overcast SCT055 OVC075 51.8 51.8 100% 29.9 0.0
23 03:15 Calm 10.00 Mostly Cloudy BKN055 BKN075 51.8 51.8 100% 29.89 0.0
23 02:55 Calm 10.00 Partly Cloudy SCT075 50 50 100% 29.89 0.0
23 02:35 Calm 10.00 Fair CLR 50 50 100% 29.89 0.0
23 02:15 Calm 10.00 Fair CLR 51.8 50 94% 29.9 0.0
23 01:55 Calm 10.00 Fair CLR 50 50 100% 29.89 0.0
23 01:35 Calm 10.00 Fair CLR 51.8 50 94% 29.89 0.0
23 01:15 Calm 10.00 Fair CLR 51.8 50 94% 29.89 0.0
23 00:55 NW 5 10.00 Fair CLR 51.8 51.8 100% 29.9 0.0
23 00:35 Calm 10.00 Fair CLR 51.8 50 94% 29.89 0.0
23 00:15 Calm 10.00 Fair CLR 51.8 50 94% 29.9 0.0
22 23:55 Calm 10.00 Partly Cloudy SCT033 SCT040 53.6 50 88% 29.9 0.0
22 23:35 Calm 10.00 Mostly Cloudy BKN035 55.4 51.8 88% 29.9 0.0
22 23:15 Calm 10.00 Overcast OVC035 55.4 51.8 88% 29.9 0.0
22 22:55 Calm 10.00 Overcast OVC033 55.4 51.8 88% 29.9 0.0
22 22:35 Calm 10.00 Overcast OVC031 55.4 53.6 94% 29.9 0.0
22 22:15 Calm 10.00 Overcast SCT021 OVC029 55.4 53.6 94% 29.89 0.0
22 21:55 Calm 10.00 Overcast OVC019 55.4 53.6 94% 29.89 0.0
22 21:35 Calm 10.00 Overcast OVC019 55.4 51.8 88% 29.89 0.0
22 21:15 Calm 10.00 Overcast OVC019 55.4 51.8 88% 29.88 0.0
22 20:55 N 6 10.00 Overcast OVC017 55.4 51.8 88% 29.88 0.0
22 20:35 N 3 10.00 Overcast BKN012 OVC017 55.4 51.8 88% 29.88 0.0
22 20:15 NW 12 G 16 10.00 Overcast BKN010 BKN017 OVC095 55.4 51.8 88% 29.89 0.0
22 19:55 NE 3 10.00 Mostly Cloudy SCT012 SCT026 BKN095 55.4 53.6 94% 29.85 0.0
22 19:35 NE 5 10.00 Overcast SCT009 BKN016 OVC090 55.4 53.6 94% 29.84 0.0
22 19:15 N 9 10.00 Light Drizzle SCT007 OVC013 57.2 55.4 94% 29.87 0.0
22 18:55 N 5 5.00 Rain SCT005 BKN012 57.2 57.2 100% 29.86 0.0 0.16
22 18:35 N 3 4.00 Heavy Rain SCT006 BKN011 57.2 55.4 94% 29.86 0.0 0.1
22 18:15 Calm 4.00 Heavy Rain OVC006 59 55.4 88% 29.86 0.0 0.04
22 17:55 N 3 10.00 Unknown Precip OVC006 59 57.2 94% 29.86 0.0
22 17:35 N 3 10.00 Light Drizzle OVC006 60.8 59 94% 29.85 0.0
22 17:15 N 5 10.00 Overcast OVC006 60.8 59 94% 29.85 0.0
22 16:55 Calm 10.00 Overcast OVC006 60.8 59 94% 29.85 0.0
22 16:35 N 5 10.00 Overcast OVC008 62.6 60.8 94% 29.84 0.0
22 16:15 N 3 10.00 Overcast OVC008 62.6 60.8 94% 29.84 0.0
22 15:55 NE 3 10.00 Light Drizzle OVC006 62.6 62.6 100% 29.83 0.0 0.01
22 15:35 NE 3 5.00 Light Rain SCT003 BKN008 BKN020 62.6 60.8 94% 29.83 0.0 0.01
22 15:15 Calm 7.00 Light Drizzle BKN006 OVC010 60.8 60.8 100% 29.87 0.0
22 14:55 NW 5 3.00 Fog/Mist OVC006 62.6 60.8 94% 29.89 0.0
22 14:35 NW 5 1.75 Fog/Mist OVC006 62.6 60.8 94% 29.87 0.0
22 14:15 NW 5 1.75 Fog/Mist OVC006 60.8 59 94% 29.87 0.0
22 13:55 Calm 10.00 Overcast OVC006 60.8 59 94% 29.87 0.0
22 13:35 Calm 10.00 Overcast OVC006 60.8 59 94% 29.87 0.0
22 13:15 Calm 10.00 Overcast OVC006 60.8 59 94% 29.87 0.0
22 12:55 N 5 10.00 Overcast OVC006 60.8 59 94% 29.87 0.0
22 12:35 Calm 10.00 Overcast OVC004 60.8 59 94% 29.88 0.0
22 12:15 Calm 4.00 Fog/Mist OVC004 59 57.2 94% 29.89 0.0
22 11:55 N 3 3.00 Fog/Mist OVC004 59 57.2 94% 29.89 0.0
22 11:35 Calm 10.00 Overcast OVC004 59 57.2 94% 29.89 0.0
22 11:15 Calm 10.00 Overcast OVC004 59 57.2 94% 29.9 0.0
22 10:55 Calm 10.00 Overcast OVC004 60.8 59 94% 29.89 0.0
22 10:35 Calm 10.00 Overcast OVC004 60.8 59 94% 29.89 0.0
22 10:15 Calm 10.00 Overcast OVC004 59 57.2 94% 29.9 0.0
22 09:55 Calm 10.00 Overcast OVC004 59 57.2 94% 29.91 0.0
22 09:35 Calm 10.00 Overcast OVC004 59 59 100% 29.91 0.0
22 09:15 Calm 10.00 Overcast OVC002 59 59 100% 29.91 0.0
22 08:55 Calm 10.00 Overcast OVC002 59 59 100% 29.91 0.0
22 08:35 NE 6 10.00 Overcast OVC002 59 59 100% 29.92 0.0
22 08:15 NE 5 7.00 Overcast OVC002 59 59 100% 29.92 0.0
22 07:55 Calm 7.00 Overcast OVC002 59 59 100% 29.93 0.0
22 07:35 Calm 7.00 Overcast OVC002 59 59 100% 29.93 0.0
22 07:15 Calm 4.00 Fog/Mist OVC002 59 59 100% 29.93 0.0
22 06:55 Calm 2.50 Fog/Mist OVC002 59 59 100% 29.94 0.0
22 06:35 Calm 2.00 Fog/Mist OVC004 59 59 100% 29.94 0.0
22 06:15 Calm 2.50 Fog/Mist OVC004 59 59 100% 29.94 0.0
22 05:55 NE 3 4.00 Fog/Mist OVC006 59 59 100% 29.94 0.0
22 05:35 Calm 10.00 Overcast OVC006 59 59 100% 29.94 0.0
22 05:15 Calm 10.00 Overcast OVC006 59 59 100% 29.94 0.0
22 04:55 NE 3 10.00 Overcast OVC008 60.8 59 94% 29.94 0.0
22 04:35 N 3 10.00 Overcast OVC008 60.8 59 94% 29.95 0.0
22 04:15 Calm 10.00 Overcast OVC008 62.6 60.8 94% 29.96 0.0
22 03:55 Calm 10.00 Overcast OVC008 62.6 60.8 94% 29.96 0.0
22 03:35 Calm 10.00 Overcast OVC008 62.6 60.8 94% 29.96 0.0
22 03:15 NE 3 10.00 Overcast OVC008 62.6 60.8 94% 29.98 0.0
22 02:55 E 5 10.00 Heavy Rain OVC008 64.4 62.6 94% 0 0.0
22 02:35 Calm 10.00 Overcast OVC008 64.4 62.6 94% 29.99 0.0
22 02:15 Calm 10.00 Overcast OVC010 64.4 62.6 94% 29.99 0.0
22 01:55 Calm 10.00 Overcast OVC010 64.4 62.6 94% 30 0.0
22 01:35 Calm 10.00 Overcast OVC012 64.4 62.6 94% 30.01 0.0
22 01:15 E 5 10.00 Overcast OVC012 64.4 62.6 94% 30.02 0.0
22 00:55 Calm 10.00 Overcast OVC012 64.4 62.6 94% 30.04 0.0
22 00:35 Calm 10.00 Overcast OVC014 64.4 62.6 94% 30.04 0.0
22 00:15 NE 3 10.00 Overcast OVC014 64.4 62.6 94% 30.04 0.0
21 23:55 NE 3 10.00 Overcast OVC014 66.2 62.6 88% 30.05 0.0
21 23:35 Calm 10.00 Overcast OVC014 64.4 62.6 94% 30.06 0.0
21 23:15 Calm 10.00 Overcast BKN016 OVC024 66.2 62.6 88% 30.07 0.0
21 22:55 Calm 10.00 Overcast BKN018 OVC024 68 62.6 83% 30.07 0.0
21 22:35 NE 3 10.00 Overcast OVC018 68 62.6 83% 30.07 0.0
21 22:15 NE 3 10.00 Overcast OVC020 68 62.6 83% 30.07 0.0
21 21:55 Calm 10.00 Overcast OVC018 68 62.6 83% 30.07 0.0
21 21:35 NE 3 10.00 Overcast OVC016 68 62.6 83% 30.08 0.0
21 21:15 Calm 10.00 Overcast BKN016 BKN022 OVC027 68 62.6 83% 30.08 0.0
21 20:55 NE 5 10.00 Overcast BKN018 OVC026 68 62.6 83% 30.07 0.0
21 20:35 Calm 10.00 Overcast BKN020 OVC026 68 62.6 83% 30.08 0.0
21 20:15 Calm 10.00 Overcast BKN020 OVC028 68 62.6 83% 30.09 0.0
21 19:55 NE 3 10.00 Overcast OVC018 68 60.8 78% 30.1 0.0
21 19:35 NE 3 10.00 Overcast BKN020 OVC025 68 60.8 78% 30.1 0.0
21 19:15 NE 3 10.00 Overcast BKN020 OVC029 68 60.8 78% 30.1 0.0
21 18:55 NE 7 10.00 Overcast SCT018 OVC027 68 60.8 78% 30.1 0.0
21 18:35 Calm 10.00 Overcast OVC025 68 62.6 83% 30.11 0.0
21 18:15 Calm 10.00 Overcast OVC025 68 62.6 83% 30.13 0.0
21 17:55 Calm 10.00 Overcast OVC023 68 62.6 83% 30.13 0.0
21 17:35 Calm 10.00 Overcast SCT018 OVC023 68 62.6 83% 30.14 0.0
21 17:15 Calm 10.00 Overcast OVC018 68 62.6 83% 30.15 0.0
21 16:55 Calm 10.00 Overcast OVC020 68 62.6 83% 30.15 0.0
21 16:35 Calm 10.00 Overcast OVC020 69.8 62.6 78% 30.15 0.0
21 16:15 Calm 10.00 Overcast OVC020 68 62.6 83% 30.16 0.0
21 15:55 Calm 10.00 Overcast OVC018 69.8 62.6 78% 30.16 0.0
21 15:35 Calm 10.00 Overcast OVC018 68 62.6 83% 30.17 0.0
21 15:15 Calm 10.00 Overcast OVC018 68 60.8 78% 30.17 0.0
21 14:55 E 3 10.00 Overcast OVC018 68 62.6 83% 30.18 0.0
21 14:35 E 7 10.00 Overcast OVC018 68 60.8 78% 30.2 0.0
21 14:15 SE 3 10.00 Overcast OVC018 68 60.8 78% 30.2 0.0
21 13:55 NE 3 10.00 Overcast OVC014 68 60.8 78% 30.2 0.0
21 13:35 E 6 10.00 Overcast OVC012 68 62.6 83% 30.21 0.0
21 13:15 NE 3 10.00 Overcast OVC010 68 62.6 83% 30.21 0.0
21 12:55 Calm 10.00 Overcast OVC008 68 62.6 83% 30.21 0.0
21 12:35 Calm 10.00 Overcast OVC006 64.4 62.6 94% 30.21 0.0
21 12:15 NE 5 10.00 Overcast OVC006 62.6 60.8 94% 30.22 0.0
21 11:55 NE 3 10.00 Overcast OVC006 62.6 60.8 94% 30.23 0.0
21 11:35 Calm 10.00 Overcast OVC006 62.6 60.8 94% 30.23 0.0
21 11:15 Calm 10.00 Overcast OVC006 62.6 60.8 94% 30.24 0.0
21 10:55 Calm 10.00 Overcast OVC006 60.8 59 94% 30.24 0.0 0.01
21 10:35 Calm 10.00 Overcast OVC006 60.8 59 94% 30.25 0.0
21 10:15 Calm 10.00 Overcast OVC006 60.8 59 94% 30.24 0.0
21 09:55 Calm 10.00 Overcast OVC006 59 59 100% 30.24 0.0
21 09:35 Calm 10.00 Light Rain OVC006 60.8 59 94% 30.25 0.0
21 09:15 Calm 10.00 Light Drizzle OVC006 59 57.2 94% 30.25 0.0
21 08:55 Calm 10.00 Light Drizzle OVC006 59 59 100% 30.24 0.0
21 08:35 NE 3 10.00 Light Drizzle OVC006 59 59 100% 30.25 0.0
21 08:15 Calm 10.00 Drizzle BKN006 59 59 100% 30.25 0.0
21 07:55 NE 3 10.00 Light Rain BKN006 59 57.2 94% 30.25 0.0 0.01
21 07:35 Calm 10.00 Rain OVC006 59 55.4 88% 30.25 0.0
21 07:15 Calm 10.00 Drizzle BKN006 BKN010 OVC050 59 55.4 88% 30.26 0.0
21 06:55 Calm 10.00 Mostly Cloudy SCT008 SCT015 BKN050 59 55.4 88% 30.26 0.0
21 06:35 Calm 10.00 Light Drizzle SCT009 OVC015 59 55.4 88% 30.26 0.0
21 06:15 Calm 10.00 Drizzle BKN011 OVC015 59 55.4 88% 30.28 0.0
21 05:55 Calm 10.00 Overcast OVC011 59 55.4 88% 30.28 0.0
21 05:35 Calm 10.00 Overcast OVC011 59 55.4 88% 30.28 0.0
21 05:15 Calm 10.00 Overcast SCT007 OVC015 59 55.4 88% 30.27 0.0
21 04:55 Calm 10.00 Overcast OVC017 59 55.4 88% 30.28 0.0
21 04:35 Calm 10.00 Overcast OVC019 59 55.4 88% 30.28 0.0
21 04:15 Calm 10.00 Overcast BKN021 OVC038 59 55.4 88% 30.27 0.0
21 03:55 Calm 10.00 Overcast SCT025 OVC038 59 55.4 88% 30.28 0.0
21 03:35 Calm 10.00 Overcast BKN025 BKN030 OVC040 59 55.4 88% 30.27 0.0
21 03:15 Calm 10.00 Overcast OVC027 59 53.6 82% 30.28 0.0
21 02:55 Calm 10.00 Overcast OVC027 59 55.4 88% 30.3 0.0
21 02:35 Calm 10.00 Overcast OVC031 59 55.4 88% 30.3 0.0
21 02:15 Calm 10.00 Overcast SCT023 OVC034 59 55.4 88% 30.3 0.0
21 01:55 Calm 10.00 Overcast SCT025 BKN032 OVC038 59 55.4 88% 30.31 0.0
21 01:35 Calm 10.00 Overcast OVC036 59 55.4 88% 30.31 0.0
21 01:15 Calm 10.00 Overcast OVC036 59 55.4 88% 30.32 0.0
21 00:55 Calm 10.00 Overcast OVC038 59 55.4 88% 30.32 0.0
21 00:35 Calm 10.00 Overcast OVC040 59 57.2 94% 30.32 0.0
21 00:15 Calm 10.00 Partly Cloudy SCT040 59 57.2 94% 30.31 0.0
20 23:55 Calm 10.00 Fair CLR 59 57.2 94% 30.32 0.0
20 23:35 Calm 10.00 Fair CLR 59 59 100% 30.32 0.0
20 23:15 Calm 10.00 Fair CLR 59 57.2 94% 30.31 0.0
20 22:55 Calm 10.00 Fair CLR 59 57.2 94% 30.31 0.0
20 22:35 Calm 10.00 Fair CLR 60.8 59 94% 30.31 0.0
20 22:15 Calm 10.00 Fair CLR 60.8 59 94% 30.31 0.0
20 21:55 Calm 10.00 Fair CLR 60.8 59 94% 30.31 0.0
20 21:35 Calm 10.00 Fair CLR 60.8 59 94% 30.31 0.0
20 21:15 Calm 10.00 Fair CLR 60.8 59 94% 30.32 0.0
20 20:55 E 3 10.00 Partly Cloudy SCT038 64.4 59 83% 30.33 0.0
20 20:35 SE 3 10.00 Mostly Cloudy BKN038 64.4 59 83% 30.34 0.0
20 20:15 Calm 10.00 Overcast OVC038 66.2 59 78% 30.34 0.0
20 19:55 Calm 10.00 Overcast OVC036 68 60.8 78% 30.34 0.0
20 19:35 Calm 10.00 Overcast SCT032 OVC038 68 60.8 78% 30.34 0.0
20 19:15 Calm 10.00 Overcast SCT032 OVC040 68 59 73% 30.35 0.0
20 18:55 Calm 10.00 Partly Cloudy SCT040 68 59 73% 30.35 0.0
20 18:35 Calm 10.00 Fair CLR 68 59 73% 30.33 0.0
20 18:15 SE 5 10.00 Fair CLR 68 57.2 69% 30.33 0.0
20 17:55 SE 6 10.00 Fair CLR 68 57.2 69% 30.34 0.0
20 17:35 E 7 10.00 Partly Cloudy SCT042 68 55.4 64% 30.34 0.0
20 17:15 E 3 10.00 Fair CLR 68 55.4 64% 30.33 0.0
20 16:55 E 9 10.00 Fair CLR 68 55.4 64% 30.33 0.0
20 16:35 E 5 10.00 Fair CLR 68 55.4 64% 30.35 0.0
20 16:15 E 6 10.00 Fair CLR 68 55.4 64% 30.35 0.0
20 15:55 E 3 10.00 Fair CLR 68 53.6 60% 30.36 0.0
20 15:35 N 3 10.00 Fair CLR 68 53.6 60% 30.39 0.0
20 15:15 Calm 10.00 Fair CLR 68 55.4 64% 30.39 0.0
20 14:55 Calm 10.00 Partly Cloudy SCT080 SCT110 68 55.4 64% 30.4 0.0
20 14:35 Calm 10.00 Overcast BKN080 OVC110 64.4 53.6 68% 30.4 0.0
20 14:15 NE 3 10.00 Overcast OVC080 64.4 53.6 68% 30.41 0.0
20 13:55 Calm 10.00 Overcast OVC080 64.4 53.6 68% 30.41 0.0
20 13:35 Calm 10.00 Mostly Cloudy BKN080 64.4 51.8 64% 30.4 0.0
20 13:15 Calm 10.00 Mostly Cloudy BKN085 64.4 53.6 68% 30.4 0.0
20 12:55 Calm 10.00 Mostly Cloudy BKN085 64.4 53.6 68% 30.39 0.0
20 12:35 Calm 10.00 Partly Cloudy SCT085 64.4 51.8 64% 30.4 0.0
20 12:15 E 5 10.00 Mostly Cloudy BKN085 66.2 51.8 60% 30.41 0.0
20 11:55 E 5 10.00 Mostly Cloudy BKN085 64.4 51.8 64% 30.41 0.0
20 11:35 SE 5 10.00 Partly Cloudy SCT085 66.2 51.8 60% 30.42 0.0
20 11:15 Calm 10.00 Partly Cloudy SCT085 64.4 51.8 64% 30.43 0.0
20 10:55 NE 5 10.00 Partly Cloudy SCT080 62.6 51.8 68% 30.41 0.0
20 10:35 Calm 10.00 Partly Cloudy SCT090 62.6 53.6 73% 30.41 0.0
20 10:15 Calm 10.00 Mostly Cloudy SCT065 SCT090 BKN110 60.8 53.6 77% 30.4 0.0
20 09:55 E 3 10.00 Partly Cloudy SCT065 SCT085 SCT110 59 53.6 82% 30.38 0.0
20 09:35 Calm 10.00 Light Rain CLR 59 55.4 88% 30.39 0.0
20 09:15 Calm 10.00 Light Rain SCT029 SCT037 SCT065 59 55.4 88% 30.41 0.0
20 08:55 Calm 10.00 Light Rain OVC100 59 53.6 82% 30.43 0.0
20 08:35 Calm 10.00 Overcast OVC100 59 53.6 82% 30.45 0.0
20 08:15 Calm 10.00 Overcast OVC110 59 53.6 82% 30.43 0.0
20 07:55 Calm 10.00 Mostly Cloudy BKN120 59 53.6 82% 30.43 0.0
20 07:35 Calm 10.00 Partly Cloudy SCT120 59 51.8 77% 30.43 0.0
20 07:15 Calm 10.00 Partly Cloudy SCT110 59 53.6 82% 30.42 0.0
20 06:55 Calm 10.00 Mostly Cloudy BKN110 57.2 53.6 88% 30.41 0.0
20 06:35 Calm 10.00 Mostly Cloudy BKN120 57.2 53.6 88% 30.42 0.0
20 06:15 N 3 10.00 Partly Cloudy SCT120 57.2 53.6 88% 30.41 0.0
20 05:55 Calm 10.00 Partly Cloudy SCT120 57.2 53.6 88% 30.4 0.0
20 05:35 Calm 10.00 Fair CLR 55.4 53.6 94% 30.39 0.0
20 05:15 Calm 10.00 Fair CLR 55.4 53.6 94% 30.4 0.0
20 04:55 Calm 10.00 Fair CLR 55.4 53.6 94% 30.4 0.0
20 04:35 Calm 10.00 Fair CLR 55.4 53.6 94% 30.4 0.0
20 04:15 Calm 10.00 Fair CLR 55.4 53.6 94% 30.4 0.0
20 03:55 Calm 10.00 Fair CLR 55.4 53.6 94% 30.4 0.0
Date Time (cdt) Wind (mph) Vis. (mi.) Weather Sky Cond. Air Dwpt Max. Min. Relative Humidity Wind Chill (°F) Heat Index (°F) altimeter (in) sea level (mb) 1 hr 3 hr 6 hr
6 hour
Temperature (ºF) Pressure Precipitation (in)